Location: Alvis C Story Elementary School
(33.0968°N, 96.6364°W)
Time: 13:52:27
(UTC+00:00)

PSLV DEB - Visible Passes

Search period start: 26 September 2022 00:00
Search period end: 06 October 2022 00:00
Orbit: 567 x 623 km, 98.1° (Epoch: 25 September)

Date Brightness Start Highest point End Pass type
(mag) Time Alt. Az. Time Alt. Az. Time Alt. Az.
26 Sep ? 00:35:54 10° SE 00:39:27 25° ENE 00:42:59 10° NNE visible
26 Sep ? 02:11:35 10° SSW 02:14:56 22° W 02:18:17 10° NW visible
27 Sep ? 00:45:14 10° SE 00:49:05 32° ENE 00:52:55 10° N visible
27 Sep ? 02:21:52 10° SW 02:24:41 17° W 02:27:29 10° NW visible
28 Sep ? 00:54:40 10° SE 00:58:44 42° ENE 01:02:47 10° N visible
28 Sep ? 02:32:29 10° WSW 02:34:26 13° W 02:36:24 10° WNW visible
29 Sep ? 01:04:10 10° SSE 01:08:23 55° ENE 01:12:34 10° N visible
30 Sep ? 01:13:45 10° SSE 01:18:02 73° ENE 01:22:19 10° N visible
01 Oct ? 01:23:23 10° SSE 01:27:43 85° W 01:31:59 10° NNW visible
02 Oct ? 01:33:06 10° S 01:37:22 64° WSW 01:41:37 10° NNW visible
03 Oct ? 01:42:54 10° S 01:47:03 48° W 01:51:11 10° NNW visible
04 Oct ? 01:52:46 10° SSW 01:56:44 36° W 02:00:41 10° NNW visible
05 Oct ? 00:28:01 10° ESE 00:31:04 19° ENE 00:34:06 10° NNE visible
05 Oct ? 02:02:45 10° SSW 02:06:26 28° W 02:10:05 10° NW visible
